Regional Weather Roundup
Issued by NWS

Home | Current Version | Previous Version | Text Only | Print | Product List | Glossary Off
Versions: 1 2 3 4 5 6 7 8 9 10 11 12 13 14 15 16 17 18 19 20 21 22 23 24 25 26 27

000
ASUS43 KDMX 162307
RWRIA

WEATHER ROUNDUP FOR IOWA
NATIONAL WEATHER SERVICE DES MOINES IA
600 PM CDT WED APR 16 2014

NOTE: "FAIR" INDICATES FEW OR NO CLOUDS BELOW 12,000 FEET WITH NO
SIGNIFICANT WEATHER AND/OR OBSTRUCTIONS TO VISIBILITY.

* - THESE STATIONS ARE NOT NWS STATIONS...THUS NOT UNDER NWS
QUALITY CONTROL.  THEY ALSO DO NOT REPORT WEATHER SUCH
AS PRECIPITATION OR FOG.

IAZ001>003-012>014-020>022-031>034-043>046-170000-
   NORTHWEST IOWA

CITY           SKY/WX    TMP DP  RH WIND       PRES   REMARKS
CARROLL *      CLOUDY    63  32  31 W33G51    29.70R
CHEROKEE *     DRIZZLE   44  40  86 W8        29.73R
DENISON *      PTSUNNY   45  34  65 W22G33    29.76R
LE MARS *      CLOUDY    41  39  93 NW17G24   29.80R
ORANGE CITY *  LGT RAIN  39  36  87 N15G25    29.79R WCI  31
SHELDON *      MIX PCPN  39  37  93 N21       29.77R WCI  29
SIOUX CITY     LGT RAIN  40  36  86 NW21      29.82R WCI  30
SPENCER        LGT RAIN  43  38  82 N18       29.74R
STORM LAKE *   CLOUDY    46  37  71 NW16G25   29.72R
$$

IAZ055>058-069>071-079>083-090>094-170000-
   SOUTHWEST IOWA

CITY           SKY/WX    TMP DP  RH WIND       PRES   REMARKS
ATLANTIC *     PTSUNNY   59  36  41 NW29G39   29.73R
AUDUBON *      PTSUNNY   57  28  33 NW24G33   29.73R
CLARINDA *     PTSUNNY   66  30  26 SW21G32   29.73S
COUNCIL BLFS * MOSUNNY   50  36  57 NW22G33   29.78R
CRESTON *      PTSUNNY   61  34  36 S33G43    29.74S
HARLAN  *      PTSUNNY   48  34  57 NW32G40   29.79R
LAMONI         MOSUNNY   63  32  31 S28G36    29.80F
RED OAK *      PTSUNNY   61  36  39 NW26G35   29.73R
SHENANDOAH *   PTSUNNY   61  37  41 NW24G36   29.76R
$$

IAZ047>049-059>061-072>074-084-170000-
   CENTRAL IOWA

CITY           SKY/WX    TMP DP  RH WIND       PRES   REMARKS
AMES           CLOUDY    60  32  34 S21G32    29.75F
ANKENY *       PTSUNNY   63  32  31 S23G31    29.76F
CHARITON *     PTSUNNY   61  36  39 S23G31    29.81S
DES MOINES     PTSUNNY   63  31  30 S21G35    29.77F
GRINNELL*      CLOUDY    58  31  36 S22       29.84R
KNOXVILLE *    CLOUDY    61  32  33 S28G37    29.81S
MARSHALLTOWN   CLOUDY    57  35  43 S17       29.80R
NEWTON *       CLOUDY    59  32  36 S21G38    29.82R
PELLA *        MOSUNNY   60  33  36 S22G31    29.84S
PERRY *        CLOUDY    61  28  28 S28G36    29.71F
$$

IAZ004>006-015-016-023>025-035-036-170000-
   NORTH CENTRAL IOWA

CITY           SKY/WX    TMP DP  RH WIND       PRES   REMARKS
ALGONA *       CLOUDY    57  34  41 S15G23    29.69S
CLARION *      CLOUDY    57  34  41 S22G30    29.70F
ESTHERVILLE    LGT RAIN  41  40  96 N22       29.76R FOG
FORT DODGE *   CLOUDY    59  34  38 S16G30    29.69F
MASON CITY     CLOUDY    55  35  47 S16       29.75F
FOREST CITY *  CLOUDY    54  34  47 SE9       29.72F
IOWA FALLS *   CLOUDY    57  35  43 S20       29.77S
$$

IAZ007>011-017>019-026>030-037>042-050>054-066-170000-
   NORTHEAST IOWA

CITY           SKY/WX    TMP DP  RH WIND       PRES   REMARKS
CEDAR RAPIDS   PTSUNNY   56  28  34 S20G35    29.89R
CHARLES CITY * CLOUDY    54  34  47 S18G30    29.81R
CLINTON *      PTSUNNY   54  27  35 S26G33    30.00S
DECORAH *      CLOUDY    54  30  40 S15G25    29.87R
DUBUQUE        CLOUDY    52  27  38 S22G32    29.93F
MONTICELLO *   CLOUDY    55  30  38 SE23G31   29.91S
OELWEIN *      CLOUDY   N/A N/A N/A S23G37    29.87R
WATERLOO       CLOUDY    57  31  37 S21G31    29.83R
$$

IAZ064-065-067-068-078-170000-
   EAST CENTRAL IOWA

CITY           SKY/WX    TMP DP  RH WIND       PRES   REMARKS
DAVENPORT      CLOUDY    54  26  34 S30G41    29.95F
IOWA CITY      PTSUNNY   57  29  34 S25G36    29.93R
MT. PLEASANT * PTSUNNY   58  26  28 S24G30    29.92S
MUSCATINE *    CLOUDY    57  27  30 S23G29    29.93R
QUAD CITIES    CLOUDY    54  25  32 SE22G32   29.96F
$$

IAZ062-063-075>077-085>089-095>099-170000-
   SOUTHEAST IOWA

CITY           SKY/WX    TMP DP  RH WIND       PRES   REMARKS
BURLINGTON     PTSUNNY   56  27  32 S18G29    29.95S
FAIRFIELD *    PTSUNNY   61  28  29 S25G32    29.90R
FORT MADISON * PTSUNNY   57  28  33 S17G30    29.95R
KEOKUK *       PTSUNNY   59  28  31 SE15G24   29.93R
OSKALOOSA *    CLOUDY    59  32  36 S24       29.87S
CENTERVILLE *    N/A     59  32  36 S17G25    29.87S
OTTUMWA        PTSUNNY   59  29  31 S23G33    29.87R
WASHINGTON *   PTSUNNY   59  28  31 S30       29.91R
$$

ABBREVIATIONS USED IN REMARKS
   TC - TEMPERATURES IN CELSIUS
  WCI - WIND CHILL INDEX
   HX - HEAT INDEX
  VSB - VISIBILITY
$$




USA.gov is the U.S. government's official web portal to all federal, state and local government web resources and services.